Hebbronville, TX

2:39 AM CST on December 09, 2016 (GMT -0600)
Hogg County

Weather History for KHBV - March, 2013

Change the Weather History Date:

Tuesday, March 12, 2013

  Actual Average (KALI) Record (KALI)
Temperature  
Mean Temperature 64 °F -  
Max Temperature 81 °F 74 °F 91 °F (2006)
Min Temperature 47 °F 54 °F 39 °F (2013)
Degree Days  
Heating Degree Days 1    
Growing Degree Days 14 (Base 50)    
Moisture  
Dew Point 21 °F    
Average Humidity 28    
Maximum Humidity 69    
Minimum Humidity 4    
Precipitation  
Precipitation 0.00 in - - ()
Sea Level Pressure  
Sea Level Pressure 30.13 in    
Wind  
Wind Speed 7 mph (SSE)    
Max Wind Speed 13 mph    
Max Gust Speed 20 mph    
Visibility 10 miles    
Events      
Averages and records for this station are not official NWS values.
T = Trace of Precipitation, MM = Missing Value Source: NWS Daily Summary

Daily Weather History Graph

Daily Weather History Graph

Search for Another Location

Airport or City:

Trip Planner

Search our weather history database for the weather conditions in past years. The results will help you decide how hot, cold, wet, or windy it might be!

Date:

Astronomy

Mar. 12, 2013 Rise Set
Actual Time 7:47 AM CDT 7:42 PM CDT
Civil Twilight 7:24 AM CDT 8:05 PM CDT
Nautical Twilight 6:57 AM CDT 8:32 PM CDT
Astronomical Twilight 6:29 AM CDT 8:59 PM CDT
Moon 8:03 AM CDT (3/12) 8:47 PM CDT (3/12)
Length of Visible Light 12h 41m
Length of Day
11h 54m
New Moon, 1% of the Moon is Illuminated
Mar 12
New Moon
Mar 19
First Quarter
Mar 27
Full
Apr 2
Last Quarter
Apr 10
New

Hourly Weather History & Observations

Time (CDT) Temp. Dew Point Humidity Pressure Visibility Wind Dir Wind Speed Gust Speed Precip Events Conditions
12:15 AM 56.7 °F 6.3 °F 13% 30.11 in 10.0 mi ESE 4.6 mph - N/A   Clear
12:35 AM 56.3 °F 7.5 °F 14% 30.11 in 10.0 mi SE 6.9 mph - N/A   Clear
12:55 AM 55.9 °F 13.8 °F 19% 30.11 in 10.0 mi SSE 6.9 mph - N/A   Clear
1:15 AM 55.4 °F 21.6 °F 27% 30.11 in 10.0 mi SSE 5.8 mph - N/A   Clear
1:35 AM 55.2 °F 25.9 °F 32% 30.11 in 10.0 mi South 5.8 mph - N/A   Clear
1:55 AM 54.5 °F 26.6 °F 34% 30.10 in 10.0 mi South 6.9 mph - N/A   Clear
2:15 AM 54.1 °F 27.7 °F 36% 30.11 in 10.0 mi South 6.9 mph - N/A   Clear
2:35 AM 54.5 °F 28.4 °F 37% 30.11 in 10.0 mi South 6.9 mph - N/A   Clear
2:55 AM 54.7 °F 28.4 °F 36% 30.10 in 10.0 mi South 8.1 mph - N/A   Clear
3:15 AM 54.9 °F 30.4 °F 39% 30.09 in 10.0 mi South 8.1 mph - N/A   Clear
3:35 AM 54.7 °F 32.0 °F 42% 30.09 in 10.0 mi South 6.9 mph - N/A   Clear
4:15 AM 53.4 °F 33.4 °F 47% 30.09 in 10.0 mi SSW 6.9 mph - N/A   Clear
4:35 AM 52.7 °F 34.3 °F 50% 30.08 in 10.0 mi South 5.8 mph - N/A   Clear
4:55 AM 51.6 °F 34.0 °F 51% 30.08 in 10.0 mi South 5.8 mph - N/A   Clear
5:15 AM 50.4 °F 33.8 °F 53% 30.09 in 10.0 mi South 4.6 mph - N/A   Clear
5:35 AM 49.6 °F 33.3 °F 53% 30.09 in 10.0 mi South 5.8 mph - N/A   Clear
5:55 AM 48.7 °F 32.9 °F 54% 30.10 in 10.0 mi SSW 5.8 mph - N/A   Clear
6:15 AM 48.6 °F 32.5 °F 54% 30.10 in 10.0 mi SSW 5.8 mph - N/A   Clear
6:35 AM 48.4 °F 32.9 °F 55% 30.10 in 10.0 mi SSW 5.8 mph - N/A   Clear
7:15 AM 48.0 °F 34.7 °F 60% 30.11 in 10.0 mi South 4.6 mph - N/A   Clear
7:35 AM 48.0 °F 36.0 °F 63% 30.12 in 10.0 mi SSW 4.6 mph - N/A   Clear
7:55 AM 47.5 °F 36.7 °F 66% 30.12 in 10.0 mi South 5.8 mph - N/A   Clear
8:15 AM 47.5 °F 37.6 °F 69% 30.13 in 10.0 mi South 4.6 mph - N/A   Clear
8:35 AM 48.4 °F 38.1 °F 68% 30.13 in 10.0 mi South 3.5 mph - N/A   Clear
8:55 AM 51.8 °F 39.0 °F 62% 30.14 in 10.0 mi South 4.6 mph - N/A   Clear
9:15 AM 57.6 °F 37.0 °F 46% 30.15 in 10.0 mi South 8.1 mph - N/A   Clear
9:35 AM 61.5 °F 33.8 °F 35% 30.16 in 10.0 mi SSE 8.1 mph - N/A   Clear
9:55 AM 64.0 °F 30.7 °F 29% 30.16 in 10.0 mi SSE 10.4 mph 17.3 mph N/A   Clear
10:15 AM 66.2 °F 28.9 °F 25% 30.17 in 10.0 mi SSE 12.7 mph - N/A   Clear
10:35 AM 67.6 °F 26.8 °F 22% 30.17 in 10.0 mi South 9.2 mph - N/A   Clear
10:55 AM 69.4 °F 26.1 °F 20% 30.18 in 10.0 mi South 10.4 mph - N/A   Clear
11:15 AM 70.5 °F 25.0 °F 18% 30.18 in 10.0 mi South 10.4 mph - N/A   Clear
11:35 AM 72.0 °F 21.9 °F 15% 30.18 in 10.0 mi SSE 10.4 mph - N/A   Clear
11:55 AM 72.9 °F 17.2 °F 12% 30.17 in 10.0 mi SSE 8.1 mph - N/A   Clear
12:15 PM 74.1 °F 16.0 °F 11% 30.16 in 10.0 mi South 5.8 mph - N/A   Clear
12:35 PM 74.8 °F 11.3 °F 9% 30.16 in 4.0 mi ESE 5.8 mph - N/A   Haze
12:55 PM 75.9 °F 6.1 °F 7% 30.16 in 5.0 mi South 9.2 mph - N/A   Haze
1:15 PM 76.8 °F 6.3 °F 7% 30.15 in 5.0 mi South 6.9 mph - N/A   Haze
1:35 PM 76.8 °F 3.9 °F 6% 30.13 in 5.0 mi South 5.8 mph - N/A   Haze
1:55 PM 77.7 °F 4.3 °F 6% 30.12 in 10.0 mi SSW 6.9 mph - N/A   Clear
2:15 PM 78.6 °F 4.1 °F 6% 30.11 in 10.0 mi SE 4.6 mph - N/A   Clear
2:55 PM 80.1 °F 1.4 °F 5% 30.10 in 10.0 mi South 8.1 mph - N/A   Clear
3:15 PM 80.4 °F 0.3 °F 4% 30.09 in 10.0 mi SSE 10.4 mph - N/A   Clear
3:35 PM 80.4 °F 0.5 °F 5% 30.08 in 10.0 mi SSE 8.1 mph - N/A   Clear
3:55 PM 80.8 °F -0.6 °F 4% 30.08 in 10.0 mi SSE 10.4 mph - N/A   Clear
4:15 PM 81.0 °F -2.4 °F 4% 30.07 in 10.0 mi ESE 9.2 mph - N/A   Clear
4:35 PM 81.5 °F -3.1 °F 4% 30.07 in 10.0 mi East 6.9 mph 17.3 mph N/A   Clear
4:55 PM 81.1 °F -2.7 °F 4% 30.07 in 10.0 mi SE 8.1 mph - N/A   Clear
5:15 PM 80.6 °F -2.0 °F 4% 30.06 in 10.0 mi SE 9.2 mph - N/A   Clear
5:35 PM 80.4 °F -1.8 °F 4% 30.07 in 10.0 mi SE 8.1 mph - N/A   Clear
5:55 PM 79.5 °F 0.9 °F 5% 30.07 in 10.0 mi SSE 8.1 mph - N/A   Clear
6:15 PM 79.0 °F 1.9 °F 5% 30.08 in 10.0 mi ESE 10.4 mph - N/A   Clear
6:35 PM 78.6 °F -0.6 °F 5% 30.08 in 10.0 mi ESE 9.2 mph - N/A   Clear
6:55 PM 77.9 °F -2.9 °F 4% 30.08 in 10.0 mi SE 6.9 mph - N/A   Clear
7:15 PM 76.8 °F 2.1 °F 5% 30.09 in 10.0 mi SE 9.2 mph - N/A   Clear
7:35 PM 75.6 °F 6.1 °F 7% 30.10 in 10.0 mi SE 6.9 mph - N/A   Clear
7:55 PM 73.8 °F 6.4 °F 7% 30.11 in 10.0 mi SE 6.9 mph - N/A   Clear
8:15 PM 72.0 °F 7.2 °F 8% 30.12 in 10.0 mi SE 5.8 mph - N/A   Clear
8:35 PM 70.2 °F 13.5 °F 11% 30.14 in 10.0 mi East 11.5 mph 19.6 mph N/A   Clear
8:55 PM 68.9 °F 29.5 °F 23% 30.15 in 10.0 mi East 9.2 mph - N/A   Clear
9:15 PM 67.1 °F 32.0 °F 27% 30.17 in 10.0 mi East 9.2 mph - N/A   Clear
9:35 PM 65.1 °F 34.7 °F 32% 30.18 in 10.0 mi East 11.5 mph - N/A   Clear
9:55 PM 63.5 °F 37.6 °F 38% 30.19 in 10.0 mi East 9.2 mph - N/A   Clear
10:15 PM 62.1 °F 39.0 °F 43% 30.20 in 10.0 mi ESE 8.1 mph - N/A   Clear
10:35 PM 60.8 °F 39.9 °F 46% 30.22 in 10.0 mi East 6.9 mph - N/A   Clear
10:55 PM 59.9 °F 40.6 °F 49% 30.22 in 10.0 mi ESE 6.9 mph - N/A   Clear
11:15 PM 59.5 °F 41.7 °F 52% 30.23 in 10.0 mi ESE 8.1 mph - N/A   Clear
11:35 PM 59.2 °F 42.8 °F 55% 30.23 in 10.0 mi SE 8.1 mph - N/A   Clear
11:55 PM 58.5 °F 43.3 °F 57% 30.23 in 10.0 mi SE 6.9 mph - N/A   Clear